Location: Chemnitz
(50.7860°N, 12.9004°E)
Time: 02:08:50
(UTC+02:00)

ISS - Visible Passes

Search period start: 23 September 2020 00:00
Search period end: 03 October 2020 00:00
Orbit: 419 x 420 km, 51.6° (Epoch: 23 September)

Date Brightness Start Highest point End Pass type
(mag) Time Alt. Az. Time Alt. Az. Time Alt. Az.
23 Sep -3.8 20:56:34 10° W 20:59:56 80° N 21:00:25 62° ENE visible
24 Sep -3.8 20:09:08 10° WSW 20:12:31 89° SSW 20:14:50 19° ENE visible
24 Sep -1.7 21:46:02 10° W 21:47:47 28° WNW 21:47:47 28° WNW visible
25 Sep -3.8 20:58:36 10° W 21:01:59 75° N 21:02:09 72° NE visible
26 Sep -3.7 20:11:10 10° W 20:14:32 75° N 20:16:30 23° E visible
26 Sep -1.4 21:48:02 10° WNW 21:49:27 23° W 21:49:27 23° W visible
27 Sep -3.7 19:23:42 10° W 19:27:04 80° N 19:30:28 10° E visible
27 Sep -3.7 21:00:35 10° WNW 21:03:46 78° WNW 21:03:46 78° WNW visible
28 Sep -3.8 20:13:08 10° W 20:16:31 80° N 20:18:06 29° E visible
28 Sep -1.0 21:50:01 10° W 21:51:03 18° W 21:51:03 18° W visible
29 Sep -3.7 19:25:39 10° W 19:29:02 75° N 19:32:25 10° E visible
29 Sep -3.1 21:02:31 10° WNW 21:05:23 51° WSW 21:05:23 51° WSW visible
30 Sep -3.7 20:15:02 10° WNW 20:18:25 75° SSW 20:19:43 34° ESE visible
30 Sep -0.6 21:52:12 10° W 21:52:41 13° W 21:52:41 13° W visible
01 Oct -3.7 19:27:33 10° WNW 19:30:57 90° ENE 19:34:05 12° ESE visible
01 Oct -2.2 21:04:31 10° W 21:07:03 29° SW 21:07:03 29° SW visible
02 Oct -2.9 20:16:56 10° W 20:20:10 42° SSW 20:21:28 28° SSE visible
